Wetbulb
57.23 57.12 57.37 57.63 57.71 57.95 57.90 58.13 58.33 58.52 58.61 58.66 58.80 59.20 59.98 59.07 59.93 59.08 53.22 61.54 61.68 75.29 74.91 71.86 68.21 66.80 69.74 64.84 63.39 65.25 56.84 56.06 57.78 58.89 61.09 64.99 62.89 66.46 67.81 65.10 66.94 67.86 66.59 68.37 70.86
56.73 56.77 56.79 57.06 57.19 57.58 58.06 58.08 58.10 58.11 58.17 58.24 58.43 58.96 59.99 60.03 58.71 56.16 64.00 70.45 72.65 74.25 68.47 63.86 60.87 62.00 59.27 58.61 60.49 58.83 55.27 53.39 60.75 63.25 63.33 64.41 64.12 64.98 64.11 65.37 65.39 66.26 68.73 69.76 70.67
56.25 56.29 56.41 56.56 56.86 56.93 57.52 57.79 58.09 58.19 57.71 57.89 58.28 58.96 59.48 60.58 55.27 53.13 71.21 71.17 73.46 71.25 65.88 60.49 60.29 57.60 54.05 57.13 57.70 56.93 54.54 55.90 59.48 64.62 66.01 64.24 64.52 66.09 63.81 62.95 65.75 65.14 67.06 69.10 69.43
55.70 55.57 55.84 56.10 56.43 56.58 56.63 56.90 57.50 57.35 57.17 57.55 58.04 58.61 60.07 58.93 47.70 59.18 73.26 72.59 73.62 64.47 59.83 56.31 55.47 54.60 55.44 55.00 55.38 53.05 55.69 56.68 62.46 66.33 65.22 63.62 66.24 64.71 64.60 64.08 68.39 68.68 69.36 69.60 69.20
55.07 55.10 55.28 55.49 55.74 56.10 56.08 56.24 56.68 56.91 56.70 57.33 57.98 58.60 59.15 52.34 52.18 62.15 72.60 73.19 71.19 60.72 56.54 55.31 55.39 56.58 53.86 55.58 53.80 52.63 56.19 56.79 63.53 66.15 65.96 66.74 64.51 63.96 64.56 67.66 69.12 69.65 69.45 69.28 69.69
54.85 55.02 54.81 54.93 55.33 55.89 56.19 56.46 56.55 56.01 56.60 57.33 57.89 59.30 56.57 49.71 57.59 65.56 67.74 67.41 63.08 58.60 56.12 55.91 55.65 57.41 56.29 54.15 52.80 57.94 61.35 62.51 65.18 65.87 66.38 64.52 64.72 64.65 65.46 68.47 68.30 68.80 68.87 69.69 69.88
54.82 55.12 55.25 54.63 54.89 55.37 56.09 55.90 55.48 56.03 56.83 58.57 58.12 58.85 54.15 53.49 58.93 59.58 63.64 59.45 60.33 57.16 54.92 56.18 57.52 57.80 56.39 54.23 56.75 60.76 60.55 62.89 64.20 64.91 64.22 65.90 61.67 61.90 66.66 67.91 67.40 67.96 68.88 69.39 69.92
55.11 55.07 54.78 55.00 55.06 55.18 55.30 55.11 55.30 56.83 59.11 58.24 59.88 59.08 52.04 57.08 59.40 59.34 57.67 56.16 57.31 56.49 56.87 56.67 57.15 55.91 56.57 56.47 57.75 58.60 59.42 56.72 61.57 63.62 64.28 63.86 57.23 64.14 66.85 66.66 66.17 67.02 67.95 68.63 69.62
54.68 54.57 54.58 54.52 54.60 54.65 54.23 54.65 56.56 59.26 59.52 60.76 58.73 56.62 52.68 62.08 58.21 60.73 58.75 55.44 55.75 54.84 55.51 57.52 56.39 54.08 54.59 53.71 56.43 56.85 54.57 55.85 58.01 63.80 63.34 61.83 58.17 64.75 66.67 65.80 65.34 66.71 67.65 68.16 68.98
54.40 54.32 54.35 54.25 54.13 53.78 53.59 54.44 55.46 58.08 60.55 60.96 60.70 54.18 55.66 55.44 59.40 58.89 59.19 55.58 53.65 54.35 52.98 53.64 54.20 52.76 52.84 53.18 50.61 54.27 54.56 56.10 56.90 60.45 62.23 60.68 59.62 64.42 65.54 65.05 64.65 65.70 66.85 67.46 68.08
54.15 54.09 54.06 53.84 53.49 53.16 52.80 50.54 51.40 51.12 53.77 54.96 54.29 53.10 54.04 57.93 59.33 58.71 58.83 54.64 53.57 52.50 49.38 52.14 50.14 48.45 51.13 53.33 54.11 57.54 56.95 56.24 58.36 60.76 60.44 59.80 60.35 63.19 65.09 64.65 64.17 65.35 66.29 66.92 67.75
54.11 53.86 53.77 53.53 52.83 52.93 49.86 48.94 46.98 46.86 44.66 49.52 49.61 53.36 55.93 56.78 53.48 56.28 58.27 55.94 51.38 47.84 50.21 49.68 47.63 51.80 53.49 53.22 54.25 56.44 56.64 56.32 55.84 59.46 60.40 59.63 59.18 61.65 65.11 64.66 65.04 65.18 66.05 66.99 68.11
53.88 53.51 53.42 52.83 52.40 49.89 47.23 48.97 49.72 49.59 45.08 48.72 50.64 50.68 51.87 54.80 52.94 54.50 56.95 53.75 51.00 48.36 49.21 47.77 49.46 51.70 52.23 52.17 53.15 54.32 56.10 54.73 55.72 55.19 59.33 57.38 56.44 58.43 63.28 66.10 66.31 66.81 67.42 67.93 68.15
53.55 53.34 52.75 51.82 48.56 47.32 48.80 49.97 50.09 49.01 45.39 48.08 49.63 52.31 55.11 55.59 52.42 57.74 58.84 54.96 50.51 48.36 48.72 49.28 50.83 50.73 51.55 51.39 53.10 51.52 53.95 53.83 52.45 52.46 49.23 56.56 47.31 55.87 60.32 62.72 64.85 66.16 66.88 67.55 68.36
53.38 53.09 52.45 51.81 47.89 46.06 49.11 50.25 50.26 48.96 37.79 48.40 50.41 56.22 56.31 53.34 54.66 54.65 57.07 54.78 50.21 48.94 49.47 48.40 48.84 49.52 49.89 51.28 53.19 51.81 53.66 53.12 53.00 51.23 52.36 53.26 50.42 55.35 58.96 59.34 62.18 64.57 66.01 67.05 68.08
52.99 52.58 52.23 49.10 47.54 48.92 50.06 49.34 49.93 45.26 37.80 47.03 51.38 50.53 51.98 53.20 53.69 53.99 53.71 56.41 54.04 49.34 49.00 49.68 50.99 51.40 51.87 52.20 53.26 52.82 51.76 51.11 50.96 51.22 47.49 52.22 51.19 52.56 56.95 60.02 62.06 64.67 65.72 66.65 67.45
52.19 51.43 50.84 49.97 46.60 49.18 49.92 47.92 42.55 39.13 48.37 46.23 48.17 50.20 50.73 50.10 51.20 53.23 51.24 51.58 49.50 45.66 45.76 47.51 48.81 50.33 51.54 50.43 52.04 51.60 50.93 47.40 46.48 46.40 46.08 50.40 51.98 54.11 59.13 61.08 62.81 63.58 65.03 66.64 67.49
51.31 50.94 48.72 50.00 50.59 50.40 47.81 44.08 36.48 42.73 45.73 49.19 48.07 48.32 48.26 50.06 50.16 51.99 50.63 50.18 51.17 49.05 46.09 44.32 42.48 48.72 51.21 51.04 49.99 50.04 50.83 48.30 43.70 44.15 46.76 49.15 49.06 53.30 59.94 61.78 62.63 64.10 65.31 66.42 66.94
50.65 47.35 45.93 48.59 49.48 48.91 44.53 37.74 40.11 42.59 47.33 46.69 47.79 45.69 45.96 49.05 49.63 50.67 51.33 50.87 51.51 49.99 46.15 45.07 44.54 49.19 50.37 51.50 52.66 49.39 47.44 52.26 49.01 46.42 46.23 48.97 51.70 54.55 57.34 57.16 59.06 59.97 63.14 64.66 66.06
45.88 43.15 43.91 49.37 50.84 46.64 41.68 38.69 41.34 43.61 45.51 46.26 44.46 46.49 44.54 46.84 48.15 48.86 49.89 53.46 51.70 51.04 52.23 49.13 45.20 49.34 50.93 51.44 50.84 51.33 52.41 47.05 48.22 43.97 42.33 46.72 48.58 50.30 56.05 57.98 60.44 60.68 60.81 63.38 66.20
43.59 39.78 46.52 50.48 48.17 43.48 37.52 38.80 41.70 45.13 45.32 44.12 44.57 45.50 46.84 46.45 47.91 48.53 49.01 51.43 54.49 50.64 51.81 49.36 48.21 48.00 50.64 49.05 48.20 49.14 48.72 49.50 50.48 49.18 45.81 44.32 47.95 57.69 59.13 60.31 60.21 61.12 61.84 62.77 64.69
40.87 36.15 46.30 48.72 42.50 41.30 39.24 40.84 42.79 44.50 46.60 44.94 44.90 44.60 45.58 45.68 45.73 46.64 48.56 51.17 53.99 52.30 49.23 51.27 49.37 46.26 48.47 51.32 53.24 51.83 50.33 51.22 47.29 46.23 48.45 48.53 48.97 56.13 57.85 59.18 59.56 60.43 62.36 64.04 65.02
38.31 36.86 46.37 45.97 37.38 38.63 41.65 42.41 44.27 43.52 44.43 44.30 43.94 45.51 45.83 45.13 44.10 45.13 46.24 48.58 50.32 51.92 52.35 50.94 48.63 44.75 46.57 48.99 49.90 50.38 50.61 51.79 52.02 51.43 49.42 46.71 48.92 56.34 57.59 58.71 60.32 60.69 62.89 64.77 66.26
39.90 33.81 41.59 44.36 42.12 38.62 37.24 40.57 40.97 46.43 45.18 45.47 44.53 44.98 44.17 43.73 45.04 43.96 45.13 46.98 47.78 50.67 57.79 54.51 50.57 48.30 44.63 48.22 50.84 48.68 49.59 51.15 51.80 48.81 49.47 49.17 51.63 55.52 57.35 59.54 61.52 62.17 63.04 64.38 66.32
39.98 35.95 38.51 34.31 38.34 36.85 38.49 39.49 39.47 40.85 45.69 47.07 44.66 44.41 43.47 41.84 43.22 43.46 45.02 46.13 47.67 54.95 52.62 51.49 48.08 48.82 50.11 51.45 51.35 50.42 49.95 50.03 49.88 51.17 48.88 51.49 51.47 55.82 59.93 60.29 62.01 63.71 64.40 64.13 65.14
38.46 37.81 41.08 36.87 37.82 37.56 37.60 38.62 38.47 38.80 40.62 43.17 43.38 42.56 45.06 42.83 44.12 43.40 45.13 45.88 46.67 48.04 48.53 50.73 48.50 49.51 47.87 49.77 49.67 48.68 50.32 50.85 50.59 51.39 51.11 51.91 52.63 58.49 61.49 59.61 59.97 61.74 63.29 64.56 66.26
43.45 44.54 41.72 35.97 35.32 34.24 36.14 37.24 37.45 39.18 41.56 43.26 41.58 40.52 42.56 45.21 47.01 48.88 50.01 49.87 48.81 48.05 46.77 46.84 49.88 48.35 46.16 49.78 49.16 45.15 49.11 50.43 51.23 52.41 52.14 49.86 54.48 58.70 57.48 58.14 60.31 63.28 63.22 64.60 66.34
MSLP
1018.63 1018.15 1017.68 1017.23 1016.73 1016.24 1015.82 1015.35 1014.90 1014.47 1014.07 1013.61 1013.14 1012.76 1012.57 1012.23 1011.38 1011.09 1009.62 1007.91 1008.25 1008.89 1009.08 1009.65 1009.83 1009.65 1009.77 1009.12 1008.75 1008.58 1007.79 1007.12 1007.15 1007.90 1009.03 1010.31 1010.84 1011.75 1012.15 1012.47 1012.67 1013.09 1013.57 1014.50 1015.73
1018.90 1018.52 1017.99 1017.39 1016.83 1016.30 1015.81 1015.34 1014.87 1014.47 1014.05 1013.58 1013.10 1012.62 1012.36 1012.13 1011.23 1009.52 1007.16 1007.31 1007.79 1008.43 1008.80 1008.80 1008.83 1009.13 1008.95 1008.45 1008.17 1007.82 1007.43 1006.59 1006.60 1007.13 1008.26 1009.74 1010.63 1011.44 1011.95 1012.41 1013.02 1013.43 1014.14 1015.11 1015.99
1019.15 1018.62 1018.17 1017.68 1017.08 1016.43 1015.78 1015.23 1014.67 1014.23 1013.95 1013.53 1013.04 1012.62 1012.24 1011.89 1010.51 1007.64 1006.90 1007.23 1007.53 1007.88 1007.81 1007.98 1008.15 1008.34 1008.05 1007.88 1007.64 1007.57 1006.69 1006.31 1006.47 1007.06 1007.87 1009.30 1010.44 1011.18 1011.62 1012.08 1012.69 1013.12 1013.96 1015.03 1015.73
1019.36 1018.83 1018.26 1017.67 1017.10 1016.53 1015.84 1015.09 1014.47 1013.95 1013.57 1013.37 1012.99 1012.55 1012.21 1011.61 1009.43 1007.16 1007.07 1007.14 1007.65 1007.68 1007.74 1007.81 1007.93 1007.69 1007.21 1007.02 1007.07 1006.99 1006.39 1006.43 1006.71 1007.38 1008.13 1009.20 1010.25 1011.07 1011.61 1011.72 1012.24 1013.28 1014.04 1014.94 1015.57
1019.37 1018.87 1018.28 1017.65 1016.97 1016.32 1015.71 1015.06 1014.36 1013.69 1013.28 1013.06 1012.78 1012.45 1011.99 1010.75 1008.10 1006.96 1006.98 1007.23 1007.87 1007.85 1007.35 1007.25 1007.27 1007.05 1006.49 1006.46 1006.73 1006.75 1006.24 1006.43 1006.93 1007.77 1008.31 1009.45 1010.31 1011.01 1011.67 1012.03 1012.53 1013.61 1014.56 1014.94 1015.47
1019.35 1018.69 1018.13 1017.44 1016.75 1015.99 1015.27 1014.65 1014.01 1013.44 1012.79 1012.63 1012.49 1012.40 1011.57 1009.46 1006.82 1006.93 1007.06 1007.49 1007.49 1007.60 1007.22 1007.03 1006.57 1006.52 1006.13 1006.29 1006.29 1006.41 1006.47 1006.80 1007.29 1008.11 1008.72 1009.19 1010.42 1011.04 1012.15 1012.55 1012.97 1013.62 1014.29 1014.83 1015.13
1019.29 1018.66 1017.86 1017.15 1016.35 1015.60 1014.80 1014.17 1013.48 1012.79 1012.33 1012.08 1012.16 1012.02 1010.75 1007.65 1006.58 1006.88 1007.00 1006.89 1007.08 1007.06 1006.83 1006.75 1006.59 1006.39 1006.07 1006.03 1006.29 1006.41 1006.61 1007.00 1007.77 1008.27 1008.91 1009.30 1010.34 1010.71 1011.85 1012.57 1013.07 1013.53 1014.02 1014.47 1014.86
1019.07 1018.42 1017.77 1016.84 1015.98 1015.06 1014.21 1013.57 1012.81 1012.12 1011.72 1011.80 1012.01 1011.60 1008.94 1006.52 1006.57 1006.65 1006.75 1006.94 1007.12 1007.03 1006.78 1006.79 1006.71 1006.41 1006.23 1006.33 1006.24 1006.18 1006.39 1006.57 1007.88 1008.18 1009.10 1009.33 1009.67 1010.87 1011.93 1012.25 1012.75 1013.23 1013.65 1014.03 1014.32
1019.05 1018.28 1017.42 1016.63 1015.68 1014.60 1013.73 1012.83 1012.16 1011.76 1011.66 1011.84 1011.73 1010.84 1007.67 1006.19 1006.19 1005.77 1005.99 1006.21 1006.79 1006.92 1006.84 1006.72 1006.70 1006.51 1006.43 1005.94 1005.92 1006.07 1005.57 1006.27 1007.59 1008.06 1008.63 1009.37 1009.55 1010.61 1011.68 1012.17 1012.41 1012.88 1013.17 1013.47 1013.77
1018.92 1018.15 1017.35 1016.32 1015.36 1014.41 1013.19 1012.26 1011.98 1011.79 1011.73 1011.70 1011.15 1010.44 1007.04 1005.73 1005.35 1005.63 1006.01 1006.02 1006.22 1006.69 1006.76 1006.70 1006.53 1006.22 1006.21 1005.61 1004.68 1005.00 1005.28 1005.94 1006.47 1007.42 1008.09 1008.98 1009.37 1010.29 1011.01 1011.48 1011.92 1012.37 1012.70 1012.89 1013.04
1018.80 1018.07 1017.20 1016.14 1015.15 1014.17 1013.03 1011.99 1012.05 1011.81 1010.98 1009.56 1008.95 1007.63 1006.15 1005.42 1005.16 1005.36 1005.62 1005.63 1005.99 1006.29 1006.10 1006.46 1005.85 1005.05 1004.82 1004.76 1004.69 1004.65 1004.76 1005.13 1006.00 1006.77 1007.46 1008.03 1008.63 1009.51 1010.24 1010.79 1011.21 1011.67 1012.16 1012.19 1012.15
1018.67 1017.90 1017.10 1015.91 1014.77 1013.86 1013.33 1012.71 1013.55 1013.75 1011.23 1008.49 1007.69 1007.13 1006.23 1005.87 1005.30 1005.05 1005.30 1005.23 1005.60 1005.62 1006.01 1006.32 1005.09 1004.75 1004.98 1005.02 1004.69 1004.53 1004.62 1004.99 1005.85 1006.52 1007.04 1007.35 1007.62 1008.42 1009.19 1009.33 1010.01 1010.57 1011.04 1011.28 1011.55
1018.59 1017.77 1016.96 1015.90 1014.50 1013.91 1014.01 1013.43 1013.63 1013.28 1011.69 1007.63 1006.37 1005.54 1005.09 1005.48 1004.76 1004.37 1004.72 1004.61 1004.99 1005.33 1005.20 1004.71 1004.49 1004.91 1004.72 1004.77 1004.53 1004.53 1004.26 1004.85 1005.25 1006.35 1006.96 1007.19 1006.90 1007.50 1007.97 1008.81 1009.49 1009.85 1010.08 1010.37 1010.65
1018.57 1017.86 1017.15 1016.06 1014.61 1014.95 1013.67 1013.39 1013.37 1013.03 1010.71 1006.76 1005.34 1003.93 1004.18 1003.97 1003.75 1003.36 1003.65 1003.79 1004.55 1004.66 1005.19 1004.80 1004.70 1004.44 1004.44 1004.17 1004.12 1004.13 1004.48 1004.82 1005.40 1005.97 1006.20 1006.76 1005.66 1006.26 1006.76 1007.78 1008.24 1008.43 1008.86 1009.08 1009.57
1018.40 1017.73 1017.29 1017.10 1016.32 1015.03 1013.52 1013.22 1012.82 1012.42 1009.22 1005.18 1004.01 1003.39 1003.31 1002.95 1002.41 1002.90 1002.97 1003.35 1003.57 1004.11 1004.63 1003.91 1004.11 1004.09 1003.95 1003.66 1003.94 1003.94 1004.23 1004.84 1005.39 1005.79 1006.25 1006.51 1006.15 1005.22 1006.21 1006.41 1006.33 1006.52 1007.04 1007.59 1008.11
1018.04 1017.44 1017.04 1016.70 1016.43 1014.26 1013.72 1013.21 1012.48 1011.03 1007.32 1004.05 1003.08 1002.87 1003.14 1002.69 1002.27 1002.61 1002.77 1002.83 1003.45 1003.95 1004.27 1003.93 1004.07 1003.74 1003.26 1003.62 1003.85 1004.48 1004.88 1005.56 1005.86 1005.70 1005.22 1005.33 1005.37 1004.07 1004.57 1003.93 1004.07 1005.12 1005.55 1006.01 1006.71
1017.53 1016.93 1016.59 1016.35 1014.76 1014.15 1013.63 1012.57 1011.41 1008.80 1005.66 1003.45 1002.44 1002.39 1002.23 1002.09 1001.98 1001.85 1002.14 1002.23 1002.32 1003.26 1003.55 1003.83 1003.53 1003.32 1003.15 1003.24 1003.98 1003.87 1003.91 1004.41 1004.52 1004.59 1004.55 1005.33 1005.14 1003.29 1002.89 1002.61 1002.50 1002.84 1003.69 1004.42 1005.37
1016.95 1015.97 1015.38 1014.92 1014.67 1014.38 1013.61 1012.15 1009.42 1006.39 1004.48 1003.24 1002.35 1002.09 1001.73 1001.55 1001.40 1001.31 1001.45 1001.61 1002.14 1002.07 1002.65 1002.79 1003.12 1002.77 1002.56 1002.12 1002.55 1003.24 1003.27 1003.19 1003.51 1004.03 1004.47 1005.43 1004.16 1002.24 1001.85 1001.68 1001.86 1002.27 1002.71 1003.65 1004.22
1016.49 1015.50 1015.03 1014.41 1014.43 1014.59 1013.18 1010.64 1007.19 1006.00 1004.26 1003.25 1002.49 1001.86 1001.29 1001.07 1000.98 1000.90 1000.61 1000.51 1000.99 1001.46 1001.38 1002.19 1002.22 1002.21 1002.31 1002.08 1002.03 1003.16 1003.29 1003.16 1003.32 1004.78 1004.21 1003.51 1002.99 1001.81 1001.23 1001.02 1001.15 1001.31 1001.95 1002.31 1002.62
1017.14 1016.05 1014.63 1014.15 1014.21 1013.93 1012.21 1009.05 1007.31 1005.79 1004.63 1003.55 1002.59 1001.91 1001.13 1000.71 1000.71 1000.59 1000.39 999.73 1000.27 1000.80 1001.11 1001.80 1001.90 1001.74 1001.52 1002.06 1002.47 1001.93 1002.57 1003.17 1003.24 1003.04 1002.97 1002.73 1002.35 1001.07 1000.73 1000.28 1000.29 1000.56 1000.89 1001.29 1001.85
1017.55 1016.05 1014.63 1014.27 1014.22 1013.13 1010.94 1008.99 1007.35 1005.85 1005.19 1004.21 1002.89 1002.11 1001.48 1000.87 1000.58 1000.28 999.75 999.72 999.57 1000.18 1000.80 1001.60 1001.75 1001.85 1001.73 1000.93 1000.83 1002.18 1002.05 1002.32 1002.05 1002.27 1001.67 1001.67 1000.75 1000.61 1000.11 999.87 999.90 999.94 1000.34 1000.57 1000.98
1018.05 1016.28 1014.65 1014.40 1013.81 1012.71 1010.88 1009.36 1007.70 1005.99 1004.96 1004.48 1003.73 1002.83 1001.90 1001.43 1000.84 1000.47 1000.01 999.54 999.03 999.64 1000.17 1000.77 1001.23 1001.20 1000.91 1000.96 1000.77 1000.58 1000.54 1001.03 1000.87 1002.16 1002.12 1001.20 999.84 999.86 999.87 999.94 1000.05 999.71 1000.09 1000.29 1000.61
1018.32 1017.17 1014.92 1014.47 1013.49 1012.42 1011.29 1009.81 1008.20 1006.60 1005.37 1004.54 1003.70 1003.22 1002.61 1002.11 1001.72 1001.05 1000.50 1000.40 999.93 999.61 999.62 1000.64 1000.63 1000.95 1000.71 1001.09 1001.21 1000.38 1000.60 1000.59 1000.93 1001.22 1000.83 1000.45 999.59 999.63 999.68 999.92 999.89 999.88 999.74 1000.09 1000.52
1018.51 1017.27 1015.43 1014.78 1014.74 1013.95 1012.86 1010.73 1008.98 1007.29 1006.20 1005.37 1004.52 1003.96 1003.57 1002.90 1002.51 1001.84 1001.09 1000.81 1000.64 1000.29 1000.26 1000.29 1000.10 999.92 999.33 999.37 999.59 999.98 1000.08 1000.19 999.93 999.89 999.85 999.53 999.33 999.38 999.32 999.23 999.08 999.43 999.33 999.97 1000.44
1018.69 1017.79 1017.42 1016.06 1015.19 1015.10 1014.29 1012.48 1010.53 1008.81 1007.47 1006.38 1005.37 1004.86 1004.40 1003.84 1003.23 1002.61 1002.27 1001.60 1001.08 1001.11 1000.88 1000.42 1000.23 1000.27 999.53 999.29 999.41 999.27 999.21 999.37 999.28 999.10 998.95 998.70 998.83 998.61 998.73 998.74 998.62 999.00 999.15 999.77 1000.07
1018.47 1017.85 1017.53 1016.87 1016.24 1015.36 1014.25 1013.00 1012.01 1011.05 1009.90 1007.72 1007.12 1006.96 1005.85 1004.99 1004.21 1003.39 1002.90 1002.41 1001.73 1001.55 1001.34 1001.37 1000.45 1000.11 999.27 998.95 998.93 998.65 998.40 998.46 998.53 998.35 998.53 998.16 998.17 998.23 998.07 998.65 998.83 998.83 999.23 999.28 999.47
1018.57 1018.27 1017.78 1016.94 1016.26 1015.67 1014.41 1013.97 1013.15 1012.64 1010.93 1010.11 1009.58 1008.51 1007.05 1006.47 1006.15 1005.23 1004.39 1003.52 1002.89 1002.80 1002.34 1002.09 1001.34 1000.57 999.24 998.81 998.64 998.30 997.22 997.21 997.48 997.75 997.84 997.69 997.82 997.82 998.11 998.28 998.41 998.22 998.68 998.71 998.74
Wind_Speed
22 22 22 22 22 22 21 21 21 20 20 20 19 18 15 16 15 3 6 5 8 17 17 11 4 6 5 4 4 2 2 3 5 8 7 10 7 4 4 12 3 4 10 15 19
22 22 22 22 22 22 21 21 20 20 20 19 19 18 15 15 4 8 9 11 19 19 13 13 8 9 4 3 3 4 1 3 3 9 11 13 9 6 8 9 7 13 18 20 18
22 23 22 22 22 22 21 21 20 20 19 18 18 16 15 11 5 4 7 12 21 15 11 7 7 5 4 2 4 3 3 3 5 7 18 15 8 5 12 7 8 20 23 21 18
22 22 23 23 22 22 23 23 22 21 20 17 16 14 13 3 4 2 4 13 19 8 12 8 5 4 4 4 5 3 8 7 8 13 14 17 9 5 10 3 10 18 22 20 18
23 23 23 23 23 23 23 23 23 22 20 17 14 10 4 2 9 2 4 14 17 7 12 11 8 5 6 2 2 6 3 3 8 14 15 14 8 3 4 6 17 18 18 18 16
23 23 23 24 24 24 23 23 22 22 21 16 10 5 2 6 3 6 11 16 12 15 11 9 8 6 4 1 1 3 8 13 14 14 13 11 6 1 4 14 18 19 18 16 17
22 22 23 25 26 25 25 24 24 23 19 11 6 4 3 14 6 3 9 4 15 14 14 7 4 5 2 1 1 4 11 13 12 9 6 12 5 4 13 16 16 17 16 15 15
23 23 23 25 26 27 27 25 25 18 10 3 7 3 8 2 1 2 7 5 6 5 6 3 3 2 2 2 2 3 3 7 7 7 6 6 1 5 15 17 17 16 15 15 17
22 23 25 25 26 28 27 27 15 4 6 8 3 2 8 4 5 5 8 9 8 2 2 5 4 1 4 5 5 2 8 9 9 9 8 8 1 8 15 15 15 15 15 15 15
22 23 25 27 27 28 30 19 4 1 5 4 3 4 6 3 2 6 3 13 5 8 6 4 3 6 5 8 10 12 8 8 9 13 10 11 9 10 16 16 15 15 15 15 16
22 24 25 28 29 29 15 2 2 4 2 6 0 4 4 5 3 4 6 7 6 5 8 5 7 14 17 14 3 11 13 16 8 7 13 15 13 12 17 16 17 16 16 16 17
23 24 25 28 29 24 4 5 4 4 10 11 17 14 12 4 4 3 11 10 7 12 8 7 15 14 8 7 8 13 16 14 4 10 14 12 17 13 19 23 20 19 18 18 18
23 24 25 28 31 3 4 7 3 1 6 8 7 8 8 12 10 8 13 7 9 9 15 12 7 13 11 10 11 9 18 12 8 6 7 3 13 13 16 16 18 19 19 19 19
22 22 23 30 2 7 2 1 8 4 5 5 5 5 8 11 8 12 17 10 5 15 10 5 7 19 13 14 13 12 10 8 9 8 4 6 8 7 13 19 20 21 21 21 21
22 22 20 13 9 5 3 9 7 4 6 3 5 3 6 13 9 11 10 7 11 8 7 10 12 17 17 14 14 5 16 13 11 8 5 6 5 1 5 15 23 24 24 23 23
23 23 22 1 3 8 11 10 3 4 10 3 4 7 7 12 5 7 13 5 5 6 2 4 2 7 10 8 16 15 11 7 5 5 8 7 8 5 7 11 18 22 24 24 24
25 25 18 4 3 3 8 3 5 8 2 4 5 6 8 11 10 10 16 17 13 11 11 4 10 3 4 10 7 6 10 6 8 7 6 3 8 12 8 14 18 17 24 25 23
28 26 3 7 4 5 3 3 11 6 8 2 2 5 7 10 12 12 17 20 12 10 7 13 12 14 8 8 11 15 14 10 10 9 9 4 9 7 9 14 13 14 14 18 23
25 5 4 2 4 4 4 10 7 7 5 4 2 4 5 9 6 15 17 24 20 17 10 11 11 3 8 6 13 8 11 9 8 3 5 4 7 11 7 11 10 14 13 18 22
10 6 4 7 6 4 6 9 7 5 4 3 11 5 7 6 11 16 14 18 16 19 11 7 6 8 9 7 3 8 15 8 4 13 13 7 5 8 6 10 9 11 14 16 18
3 6 6 4 3 3 7 7 8 15 4 3 3 5 7 4 7 10 10 10 23 19 19 8 4 4 7 14 18 8 8 1 5 6 14 13 9 8 11 11 11 11 10 12 14
4 4 3 3 3 1 4 4 3 7 10 12 4 5 4 3 5 7 9 10 15 17 20 17 7 10 8 4 6 19 19 17 10 8 2 6 13 3 10 11 8 12 7 6 10
5 5 3 3 4 2 5 7 6 6 14 6 9 8 0 3 4 3 1 6 3 16 16 14 11 9 9 7 5 9 6 9 8 2 13 12 7 1 5 8 13 14 8 5 8
3 4 2 3 3 5 7 6 7 8 16 10 6 4 4 5 1 2 2 3 8 6 5 11 8 16 17 10 7 8 10 12 16 12 11 12 13 7 10 11 12 14 9 7 7
1 1 2 4 1 9 5 5 9 6 7 4 10 16 8 7 7 7 4 3 1 0 3 6 8 11 17 16 17 15 13 18 17 18 12 12 12 13 12 15 15 13 5 8 10
3 2 1 7 6 8 3 1 7 7 6 3 3 12 6 10 11 6 6 3 6 2 3 2 4 10 14 20 17 20 22 18 18 16 16 19 15 12 11 5 12 13 10 12 12
2 2 3 3 4 6 2 4 6 13 6 5 10 13 6 3 9 9 9 8 5 2 1 2 3 5 10 10 14 13 24 22 21 15 14 15 12 12 10 11 15 15 15 16 16
Wind_Direction
4 1 358 355 352 349 346 344 342 340 339 337 335 335 337 334 311 192 244 209 174 166 138 145 172 162 176 243 222 173 244 220 176 165 129 144 138 126 110 140 118 137 146 141 152
1 359 355 352 349 345 340 337 334 333 333 333 332 330 333 336 296 245 241 163 143 156 142 169 179 165 203 221 193 233 241 262 183 149 148 152 146 136 152 141 101 114 118 138 154
357 354 352 349 345 340 335 331 328 327 328 328 327 327 326 326 286 250 344 165 162 173 162 171 134 182 228 201 174 151 251 258 176 143 141 145 140 144 165 202 176 155 144 153 161
356 352 348 345 341 337 331 327 324 321 322 323 322 321 321 290 281 79 57 161 173 175 147 154 159 196 242 212 159 238 257 247 131 140 139 151 148 158 176 320 157 156 152 156 169
352 350 346 342 337 333 328 323 320 317 316 317 315 315 292 250 253 87 69 162 163 176 178 171 171 183 239 200 171 219 291 154 146 149 134 131 145 120 219 129 137 145 159 167 176
348 345 344 340 335 329 323 320 317 314 310 308 295 289 230 260 128 86 112 140 187 183 188 173 196 203 248 154 315 47 96 106 131 137 140 131 132 111 140 146 145 156 166 178 183
345 343 340 337 332 328 322 321 317 310 304 296 241 218 210 248 143 335 163 203 165 181 180 195 164 196 159 147 15 121 107 99 123 137 128 125 155 229 153 162 160 170 174 182 193
342 340 338 334 330 326 323 322 316 307 301 182 178 213 249 215 157 228 164 107 177 170 188 165 190 123 235 95 83 166 159 141 155 161 139 199 80 148 166 170 174 181 184 188 197
340 338 335 333 329 326 324 320 321 324 114 144 167 244 259 315 244 189 171 149 152 125 131 128 161 152 155 179 151 203 178 164 162 189 152 207 42 169 177 188 182 191 195 200 202
339 337 334 331 329 327 324 315 266 241 149 216 259 268 238 147 135 128 161 150 138 143 130 140 131 178 154 197 199 187 180 179 179 185 188 199 238 179 182 192 198 200 204 204 208
338 336 334 330 327 328 331 331 258 174 209 226 300 277 286 303 252 149 178 150 111 156 169 183 187 195 191 200 251 188 197 190 190 179 188 220 232 202 188 200 204 208 209 214 215
336 335 335 330 327 323 295 73 58 323 302 244 247 258 263 303 309 147 166 164 158 180 144 161 210 200 179 181 168 190 189 196 166 169 203 212 232 215 196 209 206 205 213 217 220
334 335 337 332 324 2 338 110 4 276 258 280 216 227 213 181 213 217 183 146 173 177 188 194 182 163 170 169 163 181 191 188 214 145 189 195 255 221 212 215 211 216 218 222 223
332 333 337 336 329 342 298 54 326 218 282 257 226 243 167 164 220 191 183 166 169 196 173 211 149 166 175 185 182 190 206 174 158 179 228 215 289 209 207 210 212 216 214 219 219
328 329 333 339 299 287 19 329 327 212 295 145 167 118 158 195 134 199 177 173 178 166 194 183 172 175 181 183 190 218 172 168 185 182 192 185 254 101 191 216 217 220 216 218 218
324 322 328 331 245 262 313 314 221 205 241 264 156 167 159 210 173 120 173 157 136 144 221 221 171 192 181 169 184 140 121 114 125 191 236 176 207 253 195 217 226 221 222 220 217
321 318 315 232 247 358 321 276 191 225 347 208 190 172 194 188 197 174 180 182 175 175 196 179 209 177 195 169 163 190 181 213 226 219 262 104 196 256 239 239 239 216 219 219 216
321 315 283 242 285 291 276 175 219 198 214 2 193 133 195 168 212 174 178 192 201 180 161 192 205 204 191 222 179 195 208 223 228 230 252 118 218 238 246 264 252 244 235 225 217
323 327 290 272 248 216 210 214 217 194 243 228 259 227 204 197 211 198 195 198 194 195 193 185 224 175 208 174 177 166 212 240 229 76 240 212 242 273 269 258 249 249 233 223 219
326 325 295 324 164 185 210 237 229 236 320 252 228 224 215 192 193 198 188 198 193 197 204 185 207 199 177 177 138 221 153 173 220 216 235 215 250 238 225 236 242 248 231 235 224
338 316 23 74 210 212 229 229 239 260 265 300 260 240 236 219 210 198 203 203 202 187 195 155 254 130 169 201 190 166 188 149 192 242 228 238 234 212 216 222 237 251 242 245 221
342 296 51 302 241 217 235 219 258 251 234 239 267 255 233 212 199 209 220 235 197 167 190 195 205 218 199 111 210 216 210 204 215 180 264 268 246 186 238 272 266 265 268 237 222
334 286 330 288 276 262 313 287 273 262 242 231 232 233 342 238 237 254 182 24 48 185 186 168 212 210 212 188 183 215 178 195 209 206 207 233 240 202 248 263 262 259 266 232 203
308 312 324 20 26 10 351 286 270 255 253 251 280 258 223 217 181 192 241 42 3 116 148 182 195 213 225 225 217 198 194 194 205 218 215 228 243 248 252 250 264 248 237 235 206
308 18 356 348 1 336 296 295 307 304 322 279 233 242 243 241 229 232 247 295 255 126 155 172 210 207 236 233 227 239 218 204 214 229 222 214 210 230 239 242 242 271 222 216 204
281 277 203 300 295 311 284 359 340 348 306 321 312 337 292 237 245 233 227 219 256 293 305 6 224 202 225 228 225 230 234 228 225 235 240 245 231 235 249 260 255 247 233 222 211
169 248 271 288 298 303 278 14 327 334 289 316 6 341 295 38 343 305 295 297 284 342 92 307 231 182 233 223 220 243 235 229 230 227 234 227 230 231 228 230 239 239 220 222 214